SL-16 R/B

Satellite information

Favourite Embed

Satellite Type and Status

ROCKET BODYIN ORBIT

Key statistics

Satellite SL-16 R/B at a glance.

Uptime

11732

Days in orbit

Revolutions

≈ 14.2

Per day

Orbit

LEO

Low Earth Orbit

Inclination

71.0

Latest

Satellite identification and parameters

Extended collection of information and parameters for SL-16 R/B.

Object identification

Identified? True

Debris? False

Object name: SL-16 R/B

International designator: 1993-016B

Object number (NORAD): 22566

Object ID (CCSDS): 22566

Country: COMMONWEALTH OF INDEPENDENT STATES (CIS)

Current information (Y/N): Y

RCS size: LARGE

Orbital parameters

Period: 101.749 minutes

Inclination: 71.004 deg

SMA: 7219.586 km

Apoapsis: 847.333 km

Periapsis: 835.57 km

RAAN: 137.737 deg

Eccentricy: 0.0008147

Argument of periapsis: 63.1738 deg

Mean anomaly: 297.0216 deg

Mean motion: 14.15253641 rev/day

Mean motion (dot): -0.00000439 rev/day2

B* drag term: -0.00020119 1/REarth

Two-line elements (TLE)

Creation date: May 8, 2025, 3:01 a.m.

Reference frame: TEME

Reference center: EARTH

Epoch: May 7, 2025, 5:47 p.m. UTC

TLE line 0: 0 SL-16 R/B

TLE line 1: 1 22566U 93016B 25127.74134825 -.00000439 00000-0 -20119-3 0 9995

TLE line 2: 2 22566 71.0040 137.7370 0008147 63.1738 297.0216 14.15253641658885

Live tracking on map

Real-time ground track for satellite SL-16 R/B.

In-orbit conjunctions

A list of the most updated potential collisions computed for object SL-16 R/B.

Target Orbit TCA Probability of collision Miss distance Type
COSMOS 2251 DEB LEO 2025-03-29 23:27:53 0.0001025334 64.0 (m) DEBRIS
FENGYUN 1C DEB SSO 2024-12-01 11:00:27 0.0002194653 843.0 (m) DEBRIS
CZ-6A DEB SSO 2024-11-11 07:43:39 0.0006984851 715.0 (m) DEBRIS
CZ-6A DEB SSO 2024-11-11 06:01:44 0.0001326241 349.0 (m) DEBRIS
FENGYUN 1C DEB SSO 2024-11-03 16:43:46 0.001162927 107.0 (m) DEBRIS

Associated space launch

Second generation ELING satellite

SL-16 R/B was lifted into orbit during the mission ‘Zenit-2 | Tselina-2 13’, on board a Zenit-2 space rocket.

The launch took place on March 26, 1993, 2:21 a.m. from 45/1.

For more information about the launch, click the button.

Launch to space Zenit-2 | Tselina-2 13
Zenit-2 | Tselina-2 13

Agency: N/A

Status: Launch Successful

Launch date: March 26, 1993, 2:21 a.m. UTC

Rocket: Zenit-2

Launch pad: 45/1

Location: Baikonur Cosmodrome, Republic of Kazakhstan

...

Latest news about this satellite

There are no fresh news available about this satellite. Check back as we update our databases every day.


Newsletter sign-up

Weekly statistics, charts and insights to help you stay on top of the space industry.